TimeCST,TemperatureF,Dew PointF,Humidity,Sea Level PressureIn,VisibilityMPH,Wind Direction,Wind SpeedMPH,Gust SpeedMPH,PrecipitationIn,Events,Conditions,WindDirDegrees,DateUTC
12:56 AM,14.0,10.9,88,30.28,6.0,SE,12.7,-,0.00,Snow,Blowing Snow,140,2013-03-07 06:56:00
1:42 AM,12.2,10.4,92,30.18,10.0,SE,9.2,-,N/A,,Scattered Clouds,140,2013-03-07 07:42:00
1:56 AM,12.9,10.0,88,30.27,10.0,SE,11.5,-,N/A,,Clear,130,2013-03-07 07:56:00
2:24 AM,12.2,10.4,92,30.17,10.0,SE,10.4,-,N/A,,Partly Cloudy,140,2013-03-07 08:24:00
2:56 AM,12.9,9.0,84,30.24,8.0,SE,12.7,-,N/A,,Clear,130,2013-03-07 08:56:00
3:44 AM,12.2,8.6,85,30.12,5.0,SE,12.7,-,N/A,,Partly Cloudy,130,2013-03-07 09:44:00
3:56 AM,12.9,10.0,88,30.21,6.0,SE,16.1,-,N/A,,Partly Cloudy,130,2013-03-07 09:56:00
4:56 AM,12.0,9.0,88,30.20,7.0,ESE,10.4,-,N/A,,Clear,120,2013-03-07 10:56:00
5:56 AM,12.9,10.0,88,30.21,6.0,ESE,12.7,-,N/A,,Clear,120,2013-03-07 11:56:00
6:45 AM,14.0,10.4,86,30.12,8.0,ESE,12.7,-,N/A,,Partly Cloudy,120,2013-03-07 12:45:00
6:56 AM,15.1,12.0,88,30.22,7.0,ESE,13.8,-,N/A,,Scattered Clouds,120,2013-03-07 12:56:00
7:03 AM,15.8,12.2,86,30.12,7.0,SE,13.8,-,N/A,,Mostly Cloudy,130,2013-03-07 13:03:00
7:56 AM,16.0,12.9,88,30.21,4.0,ESE,16.1,-,N/A,,Overcast,120,2013-03-07 13:56:00
8:56 AM,16.0,12.9,88,30.20,4.0,SE,18.4,25.3,N/A,,Overcast,130,2013-03-07 14:56:00
9:56 AM,18.0,14.0,84,30.20,6.0,SE,18.4,-,N/A,,Mostly Cloudy,130,2013-03-07 15:56:00
10:56 AM,19.9,15.1,81,30.19,8.0,SE,18.4,-,N/A,,Scattered Clouds,130,2013-03-07 16:56:00
11:56 AM,21.0,16.0,81,30.18,8.0,SE,17.3,-,N/A,,Scattered Clouds,130,2013-03-07 17:56:00
12:45 PM,21.2,17.6,86,30.09,10.0,SE,16.1,-,N/A,,Mostly Cloudy,140,2013-03-07 18:45:00
12:56 PM,21.9,17.1,82,30.18,10.0,SE,17.3,24.2,N/A,,Mostly Cloudy,130,2013-03-07 18:56:00
1:25 PM,21.2,17.6,86,30.08,10.0,SE,16.1,-,N/A,,Overcast,130,2013-03-07 19:25:00
1:56 PM,23.0,18.0,81,30.16,10.0,SE,16.1,-,N/A,,Overcast,130,2013-03-07 19:56:00
2:35 PM,23.0,17.6,80,30.07,10.0,SE,19.6,-,N/A,,Overcast,140,2013-03-07 20:35:00
2:56 PM,23.0,19.0,85,30.16,10.0,SE,13.8,-,N/A,,Overcast,140,2013-03-07 20:56:00
3:56 PM,24.1,19.9,84,30.16,10.0,SE,17.3,-,N/A,,Overcast,140,2013-03-07 21:56:00
4:20 PM,23.0,19.4,86,30.09,9.0,SE,13.8,-,N/A,,Overcast,130,2013-03-07 22:20:00
4:43 PM,23.0,19.4,86,30.10,9.0,SE,11.5,-,N/A,,Overcast,140,2013-03-07 22:43:00
4:56 PM,23.0,19.0,85,30.18,8.0,SSE,13.8,-,N/A,,Overcast,150,2013-03-07 22:56:00
5:56 PM,24.1,19.9,84,30.19,8.0,SE,10.4,-,N/A,,Overcast,130,2013-03-07 23:56:00
6:56 PM,23.0,19.9,88,30.19,8.0,SE,9.2,-,N/A,,Overcast,130,2013-03-08 00:56:00
7:56 PM,23.0,19.9,88,30.20,7.0,SE,9.2,-,N/A,,Overcast,140,2013-03-08 01:56:00
8:56 PM,23.0,19.9,88,30.20,6.0,SSE,6.9,-,N/A,,Overcast,150,2013-03-08 02:56:00
9:56 PM,24.1,21.0,88,30.22,6.0,South,5.8,-,N/A,,Overcast,170,2013-03-08 03:56:00
10:56 PM,24.1,21.0,88,30.22,6.0,South,8.1,-,N/A,,Overcast,180,2013-03-08 04:56:00
11:36 PM,24.8,21.2,86,30.14,6.0,South,5.8,-,N/A,,Overcast,170,2013-03-08 05:36:00
11:56 PM,24.1,21.0,88,30.22,6.0,SSW,4.6,-,N/A,,Overcast,200,2013-03-08 05:56:00